Weather in Gerzel-Aul

Russia / Chechen Republic     43°14′50″N   46°23′59″E
temp.,
°C
wind,
m/s
gust,
m/s
humid.,
%
clouds,
%
prec.,
mm/h
press.,
hPa
HPBL,
m
17 may, tue
tue1700:00+13w337263 0.0 101746
03:00+13sw4885100 0.3 1018246
06:00+13sw3687100 0.2 1017194
09:00+14wsw2481100 0.3 1017160
12:00+16w3470100 0.0 1017533
15:00+15sw2474100 0.0 1016217
18:00+16ssw226965 0.0 101553
21:00+13sw227025 0.0 101616
18 may, wed
wed1800:00+13wsw226887 0.0 101723
03:00+14wsw3368100 0.0 101659
06:00+15s11706 0.0 101655
09:00+19ene455629 0.0 10151238
12:00+22e774818 0.0 10121496
15:00+21e88518 0.0 10101034
18:00+19e58682 0.0 1009276
21:00+13se2387100 0.0 101035
19 may, thu
thu1900:00+12wsw22861 0.0 101016
03:00+13sw22720 0.0 101013
06:00+15w11650 0.0 101150
09:00+20wnw78620 0.0 1013865
12:00+20w896197 0.0 10141385
15:00+15w81171100 0.1 1017876
18:00+11w81282100 0.1 1019848
21:00+11wsw81278100 0.3 1021738
20 may, fri
fri2000:00+9wsw91486100 2.1 1022817
03:00+10wsw101577100 2.2 10211053
06:00+11wsw101572100 0.1 10231240
09:00+12w91368100 0.3 10231298
12:00+14w8126781 0.9 10231546
15:00+16w8126072 1.6 10221585
18:00+15w81263100 0.3 1022742
21:00+13wsw51367100 0.6 1024506
21 may, sat
sat2100:00+14wsw71363100 0.1 1023840
03:00+12wsw486816 0.2 1023179
06:00+13wsw396815 0.0 1023375
09:00+18nw34515 0.0 10211224
12:00+20n32454 0.0 10201683
15:00+22nne32440 0.0 10171536
18:00+19e23600 0.0 101694
21:00+14s336690 0.0 101623